Theta_e
315 314 312 309 307 308 308 306 306 304 304 302 304 303 303 304 303 304 304 304 304 304 305 307 308 308 307 307 308 309 312 312 319 319 318 317 314 315 315 314 314 312 307
313 313 310 309 308 308 307 304 303 303 302 302 302 303 301 300 300 300 300 301 302 304 304 303 303 305 306 306 307 307 308 316 315 316 315 314 313 312 313 312 311 310 308
313 311 309 308 308 306 304 304 302 302 301 301 300 300 301 300 300 300 301 301 302 303 303 303 303 302 302 303 304 304 307 310 312 311 310 311 309 310 310 309 309 309 306
311 309 307 305 306 304 305 303 301 302 302 302 301 300 299 299 299 300 302 303 304 304 302 302 302 302 302 303 304 305 305 307 309 309 309 309 308 307 306 307 307 306 307
309 307 305 305 306 305 305 304 302 303 303 302 302 301 299 298 298 299 302 302 303 303 302 303 303 303 303 302 302 304 305 306 307 308 306 306 305 305 305 305 306 306 306
307 306 307 304 306 305 305 304 304 304 304 303 303 300 299 299 299 300 301 301 303 304 303 304 303 303 304 304 303 301 303 305 306 306 305 305 305 306 305 304 306 306 307
306 305 305 306 306 306 305 305 305 305 304 304 303 301 301 301 302 301 302 302 303 304 304 305 305 303 303 305 305 305 305 304 305 305 305 306 306 306 306 306 306 307 306
306 306 307 307 306 305 305 304 304 304 304 304 304 304 303 302 303 304 304 305 304 305 303 303 304 303 303 305 306 305 303 302 303 305 305 304 305 305 306 306 307 308 308
306 305 307 307 307 307 307 306 306 304 304 304 304 304 304 304 303 304 305 305 305 304 304 303 302 302 303 305 306 305 305 303 301 300 300 301 301 304 306 307 307 308 308
306 306 306 307 307 307 307 306 305 305 305 304 304 304 304 304 303 304 305 306 306 306 305 304 302 302 303 303 304 304 304 304 305 306 304 305 305 305 305 305 305 306 307
306 306 305 307 307 307 307 307 305 306 305 305 305 305 305 305 305 304 305 305 305 305 305 305 304 303 302 303 302 302 303 303 303 304 303 304 304 304 303 303 303 303 303
306 305 306 306 308 307 307 307 306 306 306 305 305 305 306 306 306 306 305 304 304 304 304 303 303 304 303 302 303 303 303 303 302 302 302 303 303 302 302 303 302 301 301
306 305 305 307 308 308 307 307 307 306 306 306 305 305 305 306 305 306 305 305 304 304 304 304 304 303 303 303 304 302 302 302 302 302 302 302 302 302 302 302 302 300 300
307 306 305 307 307 307 307 307 307 306 306 305 306 306 307 306 305 305 305 306 306 304 304 304 303 303 303 303 302 303 302 301 302 301 302 302 302 302 302 302 301 300 300
307 306 305 306 306 308 308 306 307 305 305 305 305 307 306 304 304 305 305 305 305 306 305 304 304 304 303 303 304 303 302 302 302 302 302 302 302 302 301 301 300 300 300
307 306 306 306 306 307 308 307 306 305 305 305 305 304 305 305 305 305 305 304 304 304 305 306 306 304 303 303 303 304 304 304 302 302 302 302 302 301 301 301 301 301 301
307 307 307 306 306 306 307 309 309 308 307 306 307 306 305 305 305 305 305 305 305 304 304 303 306 306 305 304 304 304 304 304 304 303 301 301 301 301 301 301 301 302 301
307 306 307 306 306 307 308 309 309 308 309 308 306 307 306 306 306 305 304 305 304 304 303 303 304 306 306 305 304 304 305 305 305 304 305 303 302 302 302 302 302 303 302
307 306 307 307 307 307 308 308 308 309 309 306 307 307 306 305 306 305 303 304 303 303 303 303 303 304 304 304 304 305 306 306 305 306 305 306 305 305 304 302 301 302 303
305 306 306 306 307 307 308 309 309 308 306 306 305 304 304 303 304 303 303 304 303 303 302 303 303 303 304 303 303 303 305 303 304 306 307 307 306 305 305 304 303 303 303
307 306 305 306 307 307 307 308 307 308 307 306 306 304 303 303 303 303 302 303 303 302 302 302 302 302 303 302 302 302 302 302 303 305 305 307 308 307 305 304 303 302 302
308 307 306 306 305 306 306 306 306 306 305 304 303 303 303 303 303 303 302 301 302 301 301 301 301 302 302 301 300 299 299 299 300 302 304 305 308 305 305 304 304 302 302
308 307 306 305 305 305 305 305 305 305 304 304 304 303 303 303 303 302 301 301 301 301 301 301 301 301 301 301 299 298 298 299 301 301 302 305 308 307 305 306 305 304 304
307 306 305 305 304 304 304 304 303 303 303 303 303 302 302 301 301 301 302 301 300 301 301 301 300 300 301 300 298 297 298 300 302 303 304 306 307 308 307 307 306 306 307
307 306 306 305 304 303 303 303 303 303 302 302 302 302 301 301 301 301 300 300 300 300 300 300 300 300 300 299 298 298 298 300 302 304 306 306 307 308 308 308 307 307 307
305 305 305 305 304 303 303 302 302 302 301 301 301 301 301 301 301 300 300 300 300 300 299 298 298 299 298 298 297 298 298 300 303 305 307 308 308 308 308 307 307 306 306
Wind_Speed
19 19 21 21 21 22 21 23 23 25 23 25 23 27 25 24 24 23 21 22 23 22 22 20 19 19 21 21 18 22 24 14 7 9 16 20 18 13 15 9 9 9 10
18 20 22 21 23 24 23 23 23 22 24 23 23 21 25 25 22 26 24 22 22 22 22 23 21 18 19 16 18 18 17 26 17 11 16 20 18 11 10 8 10 10 8
20 22 23 22 23 25 23 21 22 22 22 21 23 23 18 21 22 23 22 19 19 20 23 20 19 19 20 18 18 16 12 16 24 19 11 18 14 9 9 9 9 3 12
23 23 22 23 22 24 20 20 25 22 21 19 19 20 22 18 21 21 22 19 14 14 15 20 19 19 17 16 18 18 11 8 11 15 10 12 17 15 15 11 12 9 10
21 22 19 22 21 23 20 20 21 20 20 20 21 20 19 17 19 21 21 20 19 16 15 15 18 17 18 18 19 18 21 17 5 8 14 18 16 15 11 6 11 10 7
20 18 18 24 21 21 20 21 21 24 20 24 22 22 22 20 22 17 18 17 19 21 17 14 16 17 16 15 16 19 17 18 18 16 15 13 14 11 8 7 10 5 1
20 19 19 20 21 23 23 22 23 23 24 20 22 17 19 28 24 18 12 15 18 19 21 18 15 17 17 14 11 12 15 15 15 13 14 12 12 7 7 8 5 5 6
18 16 16 18 20 21 22 25 26 25 23 22 21 22 18 28 23 20 11 11 13 16 21 18 18 16 18 18 13 14 14 14 11 11 12 10 10 11 9 6 2 1 4
16 15 17 17 18 18 19 20 21 22 22 21 20 23 24 25 24 18 17 20 17 18 16 24 19 20 20 20 18 16 17 11 13 13 12 12 13 12 10 11 12 6 5
14 15 16 19 20 18 19 21 27 20 19 19 21 21 22 21 25 25 20 17 17 15 16 18 22 21 20 19 18 15 15 14 11 9 8 7 7 10 13 15 16 13 9
12 12 14 16 14 18 20 22 22 20 21 20 19 18 18 24 24 26 28 21 19 18 19 18 19 19 19 19 18 17 12 11 11 13 14 15 13 15 16 15 16 17 12
11 11 11 13 14 13 17 17 21 20 19 21 20 21 23 23 27 25 23 26 19 19 18 20 22 18 15 17 16 16 13 14 15 16 15 13 13 12 13 14 15 14 10
8 10 9 11 14 13 15 16 17 17 16 17 19 19 21 21 22 21 25 25 26 20 21 14 22 25 19 17 17 16 14 14 12 13 12 11 11 11 11 13 12 13 16
7 9 10 10 11 13 16 14 16 15 14 13 15 16 17 19 22 22 19 18 16 24 24 20 17 17 19 23 18 20 16 14 13 12 11 10 11 11 12 8 9 14 16
5 3 8 11 9 9 7 11 11 14 13 13 12 12 14 20 24 15 15 20 20 10 11 21 25 22 22 22 19 17 19 15 15 12 11 11 10 11 10 10 12 14 13
8 10 7 7 5 6 5 1 7 9 12 14 16 18 15 22 25 26 18 19 22 24 19 17 11 19 19 19 18 18 18 13 16 10 11 10 10 10 9 10 10 11 9
3 5 6 8 7 8 11 5 2 4 4 10 10 12 15 18 20 24 24 23 24 22 21 21 18 16 16 20 17 15 14 14 10 9 14 11 10 10 10 10 9 7 8
1 6 5 7 7 8 12 9 7 12 11 4 9 16 17 12 19 21 22 21 22 20 20 20 19 18 18 16 19 18 15 17 11 9 5 8 10 9 9 8 7 7 7
4 5 6 5 6 8 8 11 12 13 15 16 12 15 17 17 16 17 25 19 19 19 18 19 19 19 17 17 15 16 15 13 14 11 5 4 1 4 5 6 8 7 5
8 7 7 7 7 7 7 10 10 10 11 11 12 13 16 18 18 19 19 17 16 17 18 18 19 20 16 17 18 17 17 17 14 14 14 3 2 3 4 5 4 3 3
4 6 5 8 6 7 7 8 7 5 8 10 10 11 14 13 13 13 14 15 15 15 16 17 18 19 17 17 17 18 17 16 13 15 16 16 4 4 3 5 3 3 3
3 6 3 9 8 7 10 9 7 9 9 12 13 13 15 13 14 15 15 15 15 15 15 16 16 19 17 16 17 19 18 18 15 12 15 17 10 3 5 5 4 4 3
6 5 3 7 6 8 10 11 14 12 13 10 11 13 14 16 17 15 16 14 14 15 15 15 16 17 17 14 16 19 21 22 18 10 14 11 14 6 5 5 4 5 5
2 1 3 5 8 9 13 14 15 16 16 18 17 15 14 16 15 13 15 15 16 15 14 14 15 14 16 16 17 16 21 21 16 12 9 7 10 7 7 5 7 8 9
4 4 5 4 6 7 8 9 12 13 15 16 17 15 13 16 13 14 17 15 15 15 16 16 17 15 16 16 19 19 19 18 14 11 10 7 10 8 7 11 12 14 11
6 7 7 3 3 6 9 6 8 11 11 13 14 13 14 13 13 14 14 13 12 11 12 14 17 15 15 19 19 19 19 17 13 8 11 11 9 9 7 7 11 6 8
Wind_Direction
22 24 21 16 13 16 15 14 24 17 15 14 7 15 19 20 20 34 34 34 38 33 34 27 26 32 36 39 44 49 43 24 112 99 122 114 126 126 117 106 120 116 98
10 24 22 14 8 12 20 23 23 17 13 13 10 12 20 26 27 31 31 31 34 35 31 34 30 31 37 36 35 32 45 67 70 93 108 101 104 97 98 103 97 138 110
23 32 22 16 13 29 23 23 18 17 14 14 17 14 11 16 13 14 13 18 35 40 43 36 35 34 37 35 40 38 43 82 104 97 77 110 101 104 120 106 101 121 135
43 35 18 13 14 18 19 16 20 14 7 12 14 12 13 14 10 5 12 10 355 35 45 43 44 41 37 36 36 27 15 63 109 108 129 127 102 82 84 80 88 70 89
33 28 14 14 20 27 16 21 16 9 15 17 11 19 23 28 13 14 24 30 38 46 51 54 50 48 50 47 47 42 39 39 59 70 81 73 70 71 66 64 75 101 96
36 25 21 25 29 20 22 20 11 10 15 18 28 36 33 18 16 27 31 36 44 41 54 48 43 33 40 34 52 54 53 47 36 68 78 79 74 78 88 95 100 142 161
40 25 25 26 24 23 19 15 13 14 22 21 24 31 30 24 24 16 42 50 45 43 41 39 41 26 35 32 44 62 57 54 63 83 83 86 93 80 84 102 97 102 111
46 24 24 32 30 27 23 22 22 17 18 18 16 24 32 23 26 34 41 39 51 51 37 37 35 25 34 23 50 70 66 63 60 83 93 82 84 71 49 40 35 35 137
40 23 27 27 26 21 14 11 9 26 22 17 16 23 24 21 26 28 36 39 41 44 41 33 41 37 34 42 59 75 67 74 68 80 90 84 72 60 34 46 39 52 106
32 28 18 24 27 22 25 32 35 27 19 23 28 30 29 29 27 38 37 24 28 37 42 35 38 39 41 44 51 57 56 40 54 81 86 90 80 61 51 51 39 35 34
39 29 17 17 25 26 28 35 39 32 28 27 22 21 25 30 29 34 33 32 25 26 31 34 23 32 42 41 49 52 41 63 68 65 70 68 65 55 49 57 51 57 49
40 25 19 16 24 31 38 39 32 30 26 21 25 23 23 29 28 38 40 45 40 39 36 39 43 40 39 47 48 53 57 62 57 58 60 60 58 59 57 61 57 49 59
36 10 4 13 27 25 39 38 26 28 25 26 29 30 29 24 23 30 43 52 49 51 42 43 45 48 47 42 46 53 57 63 68 65 62 62 60 60 64 71 68 60 67
26 16 5 15 29 28 32 36 36 32 29 30 30 30 29 19 11 25 32 19 25 46 51 47 48 42 41 43 50 46 48 60 61 65 64 59 66 67 67 72 90 79 72
360 31 39 17 28 23 40 45 42 36 43 33 23 22 20 13 19 10 4 7 6 9 26 48 53 47 43 38 40 41 48 58 56 58 59 62 69 71 75 86 91 99 93
35 43 26 0 0 12 20 226 29 45 55 51 42 39 33 30 28 26 36 38 37 42 36 31 40 51 48 43 39 37 39 39 52 65 67 72 73 78 83 91 102 110 98
66 37 13 6 23 0 345 8 297 323 22 48 29 28 23 25 29 28 28 33 33 29 31 23 26 36 39 39 36 33 32 33 45 59 71 85 88 86 86 89 91 84 75
40 44 21 11 1 350 354 10 26 25 47 48 56 30 29 23 28 37 31 29 22 26 25 22 17 25 29 29 27 28 32 27 26 38 46 76 88 95 95 88 79 85 89
90 47 8 1 20 358 346 32 34 37 32 25 19 21 12 12 40 34 27 32 23 16 18 18 16 18 26 20 15 9 24 23 30 22 34 44 91 120 109 91 91 95 58
101 53 8 341 343 1 7 27 34 40 54 39 27 15 8 23 17 30 28 24 25 15 11 15 15 16 24 20 20 16 11 15 11 27 23 338 348 92 140 130 120 92 84
123 97 12 329 3 355 7 28 18 23 16 13 15 21 34 24 17 16 16 22 20 13 6 10 15 10 15 16 12 9 7 5 15 8 3 13 309 181 127 132 141 146 127
169 93 39 345 6 13 357 353 4 9 15 6 8 7 12 3 358 6 27 22 12 9 12 15 13 12 11 14 8 10 3 4 359 356 359 358 18 169 134 146 157 148 152
72 38 8 359 6 356 358 358 355 354 354 1 358 355 356 357 6 18 14 10 12 4 9 8 12 13 17 15 11 3 359 359 352 352 340 352 14 185 160 163 179 169 187
76 15 13 3 5 6 15 11 10 13 10 7 4 1 4 2 360 11 15 10 6 1 4 6 13 14 18 15 0 1 359 359 357 357 345 354 360 344 234 200 210 214 209
13 340 338 53 352 350 345 352 6 9 5 4 355 357 6 360 10 9 4 1 358 1 4 9 11 9 12 5 354 357 359 1 359 358 5 3 349 331 298 238 223 230 234
336 11 334 13 30 320 329 5 10 0 358 3 352 349 3 0 358 358 352 350 352 358 3 2 358 1 354 355 354 355 358 360 6 9 10 7 346 329 337 1 359 339 280